Location: Unspecified
(0.0000°N, 0.0000°E)
Time: 15:21:11
(UTC+00:00)

Hubble Space Telescope - Pass Details

Date: 18 May 2022
Orbit: 533 x 537 km, 28.5° (Epoch: 19 May)

Event Time Altitude Azimuth Distance (km) Brightness Sun altitude
Rises 18:30:58 0° 333° (NNW) 2,651 5.1 -8.1°
Reaches altitude 10° 18:34:43 10° 8° (N) 1,766 3.6 -9.0°
Maximum altitude 18:36:04 11° 27° (NNE) 1,680 3.2 -9.3°
Drops below altitude 10° 18:37:25 10° 47° (NE) 1,768 3.1 -9.6°
Enters shadow 18:39:13 - 67° (ENE) 2,111 3.4 -10.1°
